Location: Nairn
(57.5833°N, 3.8667°W)
Time: 02:29:02
(UTC+00:00)

UNK - Pass Details

Date: 09 December 2021
Orbit: 666 x 686 km, 98.2° (Epoch: 22 January)

Event Time Altitude Azimuth Distance (km) Brightness Sun altitude
Exits shadow 17:55:56 - 7° (N) 2,906 6.8 -17.6°
Reaches altitude 10° 17:59:27 10° 336° (NNW) 2,112 6.4 -18.0°
Maximum altitude 18:00:43 11° 319° (NW) 2,037 6.5 -18.2°
Drops below altitude 10° 18:01:59 10° 303° (WNW) 2,107 6.9 -18.4°
Sets 18:05:54 0° 269° (W) 3,013 8.6 -18.9°
